Flag for U.S.A. Weather past 2 weeks in Warminster Township, Pennsylvania, U.S.A.

Now
66 °F

Partly cloudy.


Feels Like: 66 °F
Forecast: 63 / 83 °F
Wind: No wind

Location: Doylestown Airport

Current Time: Aug 20, 2014 at 5:57:10 AM

Latest Report: Aug 20, 2014 at 4:54 AM


Visibility: 10 mi

Pressure: 29.93 "Hg

Humidity: 90%

Dew point: 63 °F

Location of Warminster TownshipLocation

Historic Weather in Warminster Township — Graph

°F

Warminster Township temperature yesterday

Maximum temperature yesterday: 82 °F (at 12:54 PM)
Minimum temperature yesterday: 58 °F (at 5:54 AM)
Average temperature yesterday: 71 °F

Past Weeks' High & Low Weather Summary

 TemperatureHumidityPressure
High89 °F (Aug 5, 2:54 PM)100% (Aug 5, 4:54 AM)30.14 "Hg (Aug 5, 4:54 AM)
Low51 °F (Aug 15, 5:54 AM)29% (Aug 9, 3:54 PM)29.68 "Hg (Aug 13, 3:54 PM)
Average70 °F67%29.95 "Hg
* Reported Aug 5 4:54 AM — Aug 20 4:54 AM, Warminster Township, Weather by CustomWeather, © 2014

Note: Actual official high and low records may vary slightly from our data, if they occured in-between our weather recording intervals... More about our weather records

Advertising

Warminster Township weather history for previous 24 hours

 ConditionsComfort  
Time TempWeatherWind HumidityBarometerVisibility
4:54 AM
Aug 20
66 °FPartly cloudy.No wind90%29.93 "Hg10 mi
3:54 AM66 °FMostly cloudy.No wind90%29.93 "Hg10 mi
2:54 AM68 °FMostly cloudy.No wind84%29.92 "Hg10 mi
1:54 AM68 °FMostly cloudy.No wind84%29.93 "Hg10 mi
12:54 AM68 °FPassing clouds.No wind84%29.92 "Hg10 mi
11:54 PM
Aug 19
69 °FPassing clouds.No wind81%29.93 "Hg10 mi
10:54 PM70 °FMostly cloudy.5 mph79%29.91 "Hg10 mi
9:54 PM71 °FPassing clouds.No wind76%29.90 "Hg10 mi
8:54 PM73 °FClear.5 mph74%29.89 "Hg10 mi
7:54 PM75 °FPartly sunny.No wind66%29.87 "Hg10 mi
6:54 PM76 °FSunny.3 mph64%29.87 "Hg10 mi
5:54 PM82 °FSunny.3 mph41%29.85 "Hg10 mi
4:54 PM82 °FSunny.3 mph44%29.85 "Hg10 mi
3:54 PM82 °FPassing clouds.3 mph41%29.86 "Hg10 mi
2:54 PM81 °FPassing clouds.5 mph42%29.87 "Hg10 mi
1:54 PM80 °FSunny.7 mph47%29.88 "Hg10 mi
12:54 PM82 °FPartly sunny.6 mph44%29.89 "Hg10 mi
11:54 AM76 °FSunny.5 mph56%29.90 "Hg10 mi
10:54 AM75 °FSunny.No wind58%29.90 "Hg10 mi
9:54 AM71 °FSunny.3 mph66%29.89 "Hg10 mi
8:54 AM68 °FSunny.N/A68%29.88 "Hg10 mi
7:54 AM63 °FSunny.5 mph75%29.88 "Hg10 mi
6:54 AM59 °FClear.5 mph84%29.87 "Hg10 mi
5:54 AM58 °FClear.5 mph87%29.86 "Hg10 mi
Weather by CustomWeather, © 2014

See weather overviewHow to use our weather pages